Skip Page Navigation
NASA JPL Caltech
NASA Logo - Jet Propulsion Laboratory + View the NASA Portal
+ Center for Near-Earth Object Studies
JPL Home Earth Solar System Stars & Galaxies Technology
JPL Solar System Dynamics
BODIES ORBITS EPHEMERIDES TOOLS PHYSICAL DATA DISCOVERY FAQ SITE MAP
IMPORTANT: The SSD Announcement email list is now available. Major changes are coming in the near future, including possible hostname and/or URL changes. To be notified of such changes, subscribe to this email list.

Please visit this page for more details.


JPL Small-Body Database Browser
Search: [ help ]  
487156 (2014 OP235)
Classification: Main-belt Asteroid          SPK-ID: 2487156
Ephemeris | Orbit Diagram | Orbital Elements | Mission Design | Physical Parameters | Discovery Circumstances | Close-Approach Data ]

[ show orbit diagram ]
Orbital Elements at Epoch 2459000.5 (2020-May-31.0) TDB
Reference: JPL 17 (heliocentric ecliptic J2000)
 Element Value Uncertainty (1-sigma)   Units 
e .0518880806272076 7.6651e-08  
a 3.150122323130799 6.8364e-08 au
q 2.986668522042621 2.3499e-07 au
i 13.49504679293897 6.3368e-06 deg
node 140.959398061443 3.8107e-05 deg
peri 176.1124191157246 0.00010035 deg
M 316.7711111838037 9.5668e-05 deg
tp 2459245.722957462591
(2021-Jan-31.22295746)
0.00054598 TDB
period 2042.159007646234
5.59
6.6478e-05
1.82e-07
d
yr
n .1762840203197161 5.7386e-09 deg/d
Q 3.313576124218976 7.1911e-08 au
  Orbit Determination Parameters
   # obs. used (total)      103  
   data-arc span      6264 days (17.15 yr)  
   first obs. used      2002-03-12  
   last obs. used      2019-05-06  
   planetary ephem.      DE431  
   SB-pert. ephem.      SB431-N16  
   condition code      0  
   norm. resid. RMS      .74745  
   source      ORB  
   producer      Otto Matic  
   solution date      2019-May-30 10:27:52  

Additional Information
 Earth MOID = 1.97356 au 
 Jupiter MOID = 1.99343 au 
 T_jup = 3.163 
[ show covariance matrix ]

Ephemeris | Orbit Diagram | Orbital Elements | Mission Design | Physical Parameters | Discovery Circumstances | Close-Approach Data ]

Physical Parameter Table
Parameter Symbol Value Units Sigma Reference Notes
absolute magnitude H 16.1   n/a E2015T31  

487156 (2014 OP235)          Discovered 2014-Apr-05 by Pan-STARRS 1 at Haleakala
Reference: Last Updated: 2017-03-14

[ show close-approach data ]
Ephemeris | Orbit Diagram | Orbital Elements | Mission Design | Physical Parameters | Discovery Circumstances | Close-Approach Data ]
ABOUT SSD CREDITS/AWARDS PRIVACY/COPYRIGHT GLOSSARY LINKS
FirstGov 2020-May-27 23:16 UT
(server date/time)  
NASA Home Page
Site Manager:   Ryan S. Park
Webmaster  Alan B. Chamberlin